Location: Newark
(52.8300°N, 8.0000°E)
Time: 14:25:52
(UTC+00:00)

STARLINK-1090 - Pass Details

Date: 29 January 2020
Orbit: 349 x 351 km, 53.0° (Epoch: 21 February)

Event Time Altitude Azimuth Distance (km) Brightness Sun altitude
Rises 17:38:28 0° 283° (WNW) 2,175 7.9 -13.8°
Reaches altitude 10° 17:40:31 10° 277° (W) 1,330 6.8 -14.1°
Maximum altitude 17:43:22 45° 203° (SSW) 494 3.6 -14.5°
Enters shadow 17:45:07 20° 137° (SE) 898 4.4 -14.8°
